No particular awareness of the weather is required.    There are no Weather-warnings


Meteo18 Weather Cam more information Meteo18 Weather Cam


Thunder radar more information blitzortung!


Rain radar more information rain snow radar


Visit our other weather sites:

Template documentation
and downloads

And another site



Weather Underground History page Text

Daily Summary for April 5, 2017 Units:  Metric    English   Both
« Previous Day
Next Day »
Daily Weekly Monthly Yearly Custom
  High: Low: Average:
Temperature: -17.8 °C -13.4 °C -11.7 °C
Dew Point: -17.8 °C -14.7 °C -13.9 °C
Humidity: Humidity % 56 % 77 %
Wind Speed: 0 km/h 0 km/h 15.1 km/h
Wind Gust: 0 km/h - -
Wind:- - South
Pressure: 0 hPa 34693 hPa -
Precipitation: 0 mm    
Historical Graphs
 
 
Tabular Data for April 5, 2017
Time Temperature Dew Point Pressure Wind Wind Speed Wind Gust Humidity Rainfall Rate (Hourly)
-17.8 °C -17.8 °C 0 hPa Calm     Humidity % 0 mm
00:02 -11 °C -13.4 °C 34693 hPa NNE 12.9 km/h 36.2 km/h 75 % 0 mm
00:07 -11 °C -13.4 °C 34703.1 hPa North 36.2 km/h 36.2 km/h 75 % 0 mm
00:12 -11.1 °C -13.4 °C 34693 hPa West 2.6 km/h 38.8 km/h 75 % 0 mm
00:17 -11.2 °C -13.6 °C 34693 hPa NNE 15.6 km/h 38.8 km/h 75 % 0 mm
00:22 -11.2 °C -13.4 °C 34703.1 hPa NNW 12.9 km/h 36.2 km/h 76 % 0 mm
00:27 -11.2 °C -13.5 °C 34703.1 hPa NNE 25.9 km/h 36.2 km/h 76 % 0 mm
00:32 -11.3 °C -13.6 °C 34693 hPa NW 25.9 km/h 36.2 km/h 76 % 0 mm
00:42 -11.3 °C -13.5 °C 34693 hPa NNE 18.2 km/h 41.4 km/h 77 % 0 mm
00:47 -11.4 °C -13.6 °C 34693 hPa NNE 10.3 km/h 41.4 km/h 77 % 0 mm
00:52 -11.5 °C -13.6 °C 34693 hPa NNW 15.6 km/h 36.2 km/h 78 % 0 mm
00:57 -11.6 °C -13.6 °C 34693 hPa NNW 7.7 km/h 36.2 km/h 78 % 0 mm
01:02 -11.6 °C -13.5 °C 34693 hPa NW 18.2 km/h 41.4 km/h 79 % 0 mm
01:07 -11.6 °C -13.6 °C 34693 hPa NE 15.6 km/h 41.4 km/h 79 % 0 mm
01:12 -11.7 °C -13.6 °C 34703.1 hPa NNE 7.7 km/h 41.4 km/h 80 % 0 mm
01:17 -11.8 °C -13.6 °C 34703.1 hPa North 7.7 km/h 41.4 km/h 80 % 0 mm
01:22 -11.8 °C -13.6 °C 34703.1 hPa North 15.6 km/h 41.4 km/h 81 % 0 mm
01:32 -11.9 °C -13.7 °C 34693 hPa North 12.9 km/h 36.2 km/h 81 % 0 mm
01:37 -12 °C -13.6 °C 34693 hPa NNE 10.3 km/h 36.2 km/h 82 % 0 mm
01:42 -12.1 °C -13.7 °C 34693 hPa NNE 20.8 km/h 36.2 km/h 82 % 0 mm
01:47 -12.1 °C -13.7 °C 34693 hPa NNW 12.9 km/h 36.2 km/h 83 % 0 mm
01:57 -12.2 °C -13.7 °C 34693 hPa NE 12.9 km/h 38.8 km/h 83 % 0 mm
02:02 -12.2 °C -13.7 °C 34693 hPa NNE 15.6 km/h 38.8 km/h 84 % 0 mm
02:07 -12.3 °C -13.7 °C 34693 hPa NNE 15.6 km/h 38.8 km/h 84 % 0 mm
02:12 -12.3 °C -13.8 °C 34693 hPa North 15.6 km/h 38.8 km/h 84 % 0 mm
02:17 -12.3 °C -13.7 °C 34703.1 hPa NNE 12.9 km/h 38.8 km/h 85 % 0 mm
02:22 -12.4 °C -13.7 °C 34703.1 hPa North 12.9 km/h 41.4 km/h 85 % 0 mm
02:27 -12.4 °C -13.7 °C 34703.1 hPa NNW 15.6 km/h 41.4 km/h 86 % 0 mm
02:32 -12.4 °C -13.7 °C 34703.1 hPa NE 12.9 km/h 28.5 km/h 86 % 0 mm
02:37 -12.6 °C -13.8 °C 34703.1 hPa NNW 5.1 km/h 28.5 km/h 86 % 0 mm
02:42 -12.6 °C -13.8 °C 34703.1 hPa NW 5.1 km/h 25.9 km/h 87 % 0 mm
02:47 -12.6 °C -13.8 °C 34703.1 hPa West 2.6 km/h 18.2 km/h 87 % 0 mm
02:52 -12.7 °C -13.8 °C 34703.1 hPa North 2.6 km/h 18.2 km/h 87 % 0 mm
02:57 -12.7 °C -13.8 °C 34703.1 hPa Calm   15.6 km/h 87 % 0 mm
03:02 -12.8 °C -13.9 °C 34703.1 hPa Calm   10.3 km/h 88 % 0 mm
03:07 -12.8 °C -13.9 °C 34703.1 hPa WNW 2.6 km/h 7.7 km/h 88 % 0 mm
03:12 -12.9 °C -14 °C 34703.1 hPa WSW 2.6 km/h 7.7 km/h 88 % 0 mm
03:17 -13 °C -14.1 °C 34703.1 hPa Calm   7.7 km/h 88 % 0 mm
03:22 -13 °C -13.9 °C 34703.1 hPa Calm   7.7 km/h 89 % 0 mm
03:27 -13.1 °C -14.1 °C 34703.1 hPa West 2.6 km/h 2.6 km/h 89 % 0 mm
03:32 -13.1 °C -13.9 °C 34703.1 hPa Calm   5.1 km/h 90 % 0 mm
03:37 -13.2 °C -14.1 °C 34703.1 hPa Calm   5.1 km/h 89 % 0 mm
03:42 -13.2 °C -13.9 °C 34703.1 hPa WNW 2.6 km/h 5.1 km/h 91 % 0 mm
03:47 -13.2 °C -14.1 °C 34703.1 hPa Calm   5.1 km/h 90 % 0 mm
03:52 -13.3 °C -14.1 °C 34703.1 hPa NNW 5.1 km/h 7.7 km/h 91 % 0 mm
03:57 -13.3 °C -14.1 °C 34703.1 hPa North 7.7 km/h 10.3 km/h 91 % 0 mm
04:02 -13.3 °C -14.1 °C 34703.1 hPa WNW 2.6 km/h 10.3 km/h 91 % 0 mm
04:07 -13.2 °C -14 °C 34703.1 hPa WNW 2.6 km/h 10.3 km/h 91 % 0 mm
04:12 -13.3 °C -14.1 °C 34703.1 hPa WNW 5.1 km/h 10.3 km/h 91 % 0 mm
04:17 -13.2 °C -13.9 °C 34703.1 hPa West 2.6 km/h 10.3 km/h 92 % 0 mm
04:22 -13.2 °C -13.8 °C 34703.1 hPa Calm   10.3 km/h 92 % 0 mm
04:27 -13.2 °C -13.8 °C 34703.1 hPa NNW 2.6 km/h 10.3 km/h 92 % 0 mm
04:32 -13.1 °C -13.8 °C 34703.1 hPa NNE 15.6 km/h 15.6 km/h 92 % 0 mm
04:37 -13.1 °C -13.7 °C 34703.1 hPa NNW 18.2 km/h 38.8 km/h 92 % 0 mm
04:42 -13.1 °C -13.7 °C 34703.1 hPa WNW 20.8 km/h 38.8 km/h 92 % 0 mm
04:47 -13 °C -13.7 °C 34703.1 hPa North 10.3 km/h 38.8 km/h 92 % 0 mm
04:52 -13.1 °C -13.7 °C 34703.1 hPa North 12.9 km/h 38.8 km/h 92 % 0 mm
04:57 -13 °C -13.6 °C 34703.1 hPa North 25.9 km/h 28.5 km/h 93 % 0 mm
05:02 -13 °C -13.6 °C 34703.1 hPa NNE 15.6 km/h 28.5 km/h 93 % 0 mm
05:07 -13 °C -13.6 °C 34716.7 hPa NNW 15.6 km/h 25.9 km/h 93 % 0 mm
05:12 -13 °C -13.6 °C 34703.1 hPa NNE 5.1 km/h 25.9 km/h 93 % 0 mm
05:17 -12.9 °C -13.6 °C 34703.1 hPa North 12.9 km/h 23.3 km/h 92 % 0 mm
05:22 -12.9 °C -13.6 °C 34703.1 hPa NNE 10.3 km/h 28.5 km/h 92 % 0 mm
05:32 -12.9 °C -13.6 °C 34703.1 hPa NNW 20.8 km/h 28.5 km/h 92 % 0 mm
05:37 -12.9 °C -13.7 °C 34703.1 hPa NW 10.3 km/h 31.1 km/h 91 % 0 mm
05:42 -12.9 °C -13.7 °C 34703.1 hPa West 5.1 km/h 31.1 km/h 91 % 0 mm
05:47 -12.9 °C -13.7 °C 34703.1 hPa NNW 7.7 km/h 25.9 km/h 91 % 0 mm
05:52 -12.9 °C -13.7 °C 34703.1 hPa NNE 7.7 km/h 25.9 km/h 91 % 0 mm
05:57 -12.9 °C -13.7 °C 34703.1 hPa NW 2.6 km/h 23.3 km/h 91 % 0 mm
06:02 -12.9 °C -13.7 °C 34716.7 hPa NNW 5.1 km/h 31.1 km/h 91 % 0 mm
06:07 -12.9 °C -13.7 °C 34716.7 hPa West 2.6 km/h 31.1 km/h 91 % 0 mm
06:12 -12.9 °C -13.7 °C 34716.7 hPa North 7.7 km/h 31.1 km/h 91 % 0 mm
06:17 -12.9 °C -13.7 °C 34716.7 hPa NNW 5.1 km/h 20.8 km/h 91 % 0 mm
06:22 -12.9 °C -13.8 °C 34716.7 hPa NNW 20.8 km/h 20.8 km/h 90 % 0 mm
06:27 -12.9 °C -13.8 °C 34716.7 hPa NNW 5.1 km/h 25.9 km/h 90 % 0 mm
06:32 -13 °C -13.8 °C 34716.7 hPa NNW 7.7 km/h 25.9 km/h 90 % 0 mm
06:37 -13.1 °C -13.9 °C 34716.7 hPa NW 5.1 km/h 31.1 km/h 90 % 0 mm
06:42 -13.2 °C -14 °C 34716.7 hPa NNW 5.1 km/h 31.1 km/h 90 % 0 mm
06:47 -13.2 °C -14.1 °C 34716.7 hPa WNW 2.6 km/h 31.1 km/h 90 % 0 mm
06:52 -13.3 °C -14.1 °C 34716.7 hPa NNW 12.9 km/h 31.1 km/h 90 % 0 mm
06:57 -13.3 °C -14.1 °C 34716.7 hPa NNW 10.3 km/h 25.9 km/h 90 % 0 mm
07:02 -13.4 °C -14.2 °C 34716.7 hPa NNW 12.9 km/h 25.9 km/h 90 % 0 mm
07:07 -13.4 °C -14.2 °C 34716.7 hPa North 10.3 km/h 23.3 km/h 91 % 0 mm
07:12 -13.4 °C -14.2 °C 34716.7 hPa NNW 2.6 km/h 28.5 km/h 90 % 0 mm
07:17 -13.4 °C -14.2 °C 34716.7 hPa NW 15.6 km/h 28.5 km/h 91 % 0 mm
07:22 -13.4 °C -14.2 °C 34726.8 hPa ENE 5.1 km/h 28.5 km/h 91 % 0 mm
07:37 -13.3 °C -14.1 °C 34726.8 hPa NNW 10.3 km/h 18.2 km/h 91 % 0 mm
07:42 -13.3 °C -14.1 °C 34726.8 hPa NNE 7.7 km/h 25.9 km/h 91 % 0 mm
07:52 -13.3 °C -14.1 °C 34726.8 hPa NNW 7.7 km/h 25.9 km/h 91 % 0 mm
07:57 -13.3 °C -14.1 °C 34726.8 hPa NW 10.3 km/h 28.5 km/h 90 % 0 mm
08:02 -13.3 °C -14.1 °C 34726.8 hPa NNW 15.6 km/h 28.5 km/h 90 % 0 mm
08:07 -13.3 °C -14.2 °C 34726.8 hPa NNW 12.9 km/h 28.5 km/h 90 % 0 mm
08:12 -13.4 °C -14.2 °C 34726.8 hPa NNW 7.7 km/h 25.9 km/h 91 % 0 mm
08:17 -13.4 °C -14.2 °C 34726.8 hPa NNE 2.6 km/h 25.9 km/h 91 % 0 mm
08:22 -13.4 °C -14.2 °C 34726.8 hPa NNW 7.7 km/h 23.3 km/h 91 % 0 mm
08:27 -13.4 °C -14.2 °C 34726.8 hPa NW 10.3 km/h 18.2 km/h 90 % 0 mm
08:32 -13.4 °C -14.2 °C 34740.4 hPa NW 15.6 km/h 23.3 km/h 90 % 0 mm
08:37 -13.4 °C -14.2 °C 34740.4 hPa North 25.9 km/h 25.9 km/h 90 % 0 mm
08:42 -13.4 °C -14.2 °C 34740.4 hPa North 20.8 km/h 31.1 km/h 90 % 0 mm
08:47 -13.4 °C -14.2 °C 34740.4 hPa North 18.2 km/h 41.4 km/h 91 % 0 mm
08:52 -13.4 °C -14.2 °C 34740.4 hPa NNE 25.9 km/h 41.4 km/h 90 % 0 mm
08:57 -13.4 °C -14.2 °C 34740.4 hPa NNW 23.3 km/h 36.2 km/h 91 % 0 mm
09:02 -13.3 °C -14.1 °C 34740.4 hPa NNW 15.6 km/h 33.6 km/h 91 % 0 mm
09:07 -13.3 °C -14.1 °C 34740.4 hPa NNW 23.3 km/h 33.6 km/h 91 % 0 mm
09:12 -13.3 °C -14.1 °C 34750.5 hPa NNW 5.1 km/h 31.1 km/h 91 % 0 mm
09:17 -13.4 °C -14.2 °C 34750.5 hPa NNW 15.6 km/h 31.1 km/h 90 % 0 mm
09:22 -13.4 °C -14.2 °C 34750.5 hPa NW 7.7 km/h 36.2 km/h 91 % 0 mm
09:27 -13.4 °C -14.2 °C 34750.5 hPa NNE 18.2 km/h 36.2 km/h 91 % 0 mm
09:32 -13.4 °C -14.2 °C 34750.5 hPa NNW 15.6 km/h 36.2 km/h 91 % 0 mm
09:37 -13.4 °C -14.2 °C 34760.7 hPa North 18.2 km/h 28.5 km/h 91 % 0 mm
09:42 -13.4 °C -14.3 °C 34760.7 hPa NNE 15.6 km/h 28.5 km/h 90 % 0 mm
09:47 -13.4 °C -14.2 °C 34760.7 hPa NW 33.6 km/h 33.6 km/h 90 % 0 mm
09:52 -13.4 °C -14.2 °C 34760.7 hPa NNW 20.8 km/h 33.6 km/h 90 % 0 mm
09:57 -13.4 °C -14.2 °C 34760.7 hPa North 15.6 km/h 41.4 km/h 90 % 0 mm
10:02 -13.4 °C -14.2 °C 34774.2 hPa North 15.6 km/h 41.4 km/h 90 % 0 mm
10:07 -13.4 °C -14.2 °C 34774.2 hPa NE 12.9 km/h 38.8 km/h 90 % 0 mm
10:12 -13.3 °C -14.1 °C 34774.2 hPa North 15.6 km/h 38.8 km/h 90 % 0 mm
10:17 -13.3 °C -14.2 °C 34774.2 hPa NNW 20.8 km/h 46.7 km/h 89 % 0 mm
10:22 -13.2 °C -14.2 °C 34774.2 hPa NNW 36.2 km/h 46.7 km/h 89 % 0 mm
10:27 -13.2 °C -14.1 °C 34774.2 hPa North 12.9 km/h 46.7 km/h 89 % 0 mm
10:32 -13.2 °C -14.2 °C 34774.2 hPa NNW 25.9 km/h 46.7 km/h 88 % 0 mm
10:37 -13.1 °C -14.2 °C 34774.2 hPa NW 10.3 km/h 41.4 km/h 88 % 0 mm
10:42 -13 °C -14.1 °C 34774.2 hPa North 20.8 km/h 46.7 km/h 88 % 0 mm
10:47 -12.9 °C -14.2 °C 34774.2 hPa NNW 31.1 km/h 46.7 km/h 86 % 0 mm
10:52 -12.9 °C -14.1 °C 34774.2 hPa NNW 12.9 km/h 38.8 km/h 87 % 0 mm
10:57 -12.9 °C -14.1 °C 34784.4 hPa NNE 25.9 km/h 38.8 km/h 86 % 0 mm
11:02 -12.9 °C -14.1 °C 34784.4 hPa NNE 28.5 km/h 38.8 km/h 86 % 0 mm
11:07 -12.7 °C -13.9 °C 34784.4 hPa NNE 31.1 km/h 41.4 km/h 86 % 0 mm
11:12 -12.7 °C -14.1 °C 34784.4 hPa NNW 12.9 km/h 41.4 km/h 84 % 0 mm
11:17 -12.6 °C -13.9 °C 34784.4 hPa NE 15.6 km/h 41.4 km/h 85 % 0 mm
11:22 -12.6 °C -14.1 °C 34784.4 hPa NNW 25.9 km/h 41.4 km/h 84 % 0 mm
11:27 -12.4 °C -13.8 °C 34784.4 hPa NNW 28.5 km/h 38.8 km/h 85 % 0 mm
11:32 -12.4 °C -13.9 °C 34784.4 hPa NNW 28.5 km/h 38.8 km/h 83 % 0 mm
11:37 -12.3 °C -13.8 °C 34784.4 hPa North 18.2 km/h 38.8 km/h 83 % 0 mm
11:42 -12.2 °C -13.7 °C 34797.9 hPa NNW 7.7 km/h 38.8 km/h 83 % 0 mm
11:47 -12.1 °C -13.8 °C 34784.4 hPa North 15.6 km/h 38.8 km/h 81 % 0 mm
11:52 -12.1 °C -13.7 °C 34797.9 hPa NW 15.6 km/h 41.4 km/h 82 % 0 mm
11:57 -11.9 °C -13.6 °C 34784.4 hPa NE 25.9 km/h 41.4 km/h 82 % 0 mm
12:02 -11.8 °C -13.7 °C 34784.4 hPa NE 20.8 km/h 41.4 km/h 80 % 0 mm
12:07 -11.7 °C -13.6 °C 34784.4 hPa NNE 20.8 km/h 36.2 km/h 80 % 0 mm
12:12 -11.6 °C -13.7 °C 34784.4 hPa NNE 18.2 km/h 36.2 km/h 78 % 0 mm
12:17 -11.5 °C -13.6 °C 34784.4 hPa WNW 15.6 km/h 31.1 km/h 78 % 0 mm
12:22 -11.4 °C -13.5 °C 34784.4 hPa NNE 7.7 km/h 33.6 km/h 78 % 0 mm
12:27 -11.4 °C -13.4 °C 34774.2 hPa North 23.3 km/h 33.6 km/h 78 % 0 mm
12:32 -11.3 °C -13.3 °C 34774.2 hPa NW 7.7 km/h 36.2 km/h 79 % 0 mm
12:42 -11.2 °C -13.4 °C 34774.2 hPa NNW 15.6 km/h 36.2 km/h 76 % 0 mm
12:47 -11.2 °C -13.5 °C 34774.2 hPa NW 18.2 km/h 33.6 km/h 76 % 0 mm
12:52 -11 °C -13.2 °C 34774.2 hPa NW 15.6 km/h 33.6 km/h 77 % 0 mm
12:57 -10.9 °C -13.4 °C 34774.2 hPa NNW 12.9 km/h 41.4 km/h 74 % 0 mm
13:02 -10.8 °C -13.3 °C 34774.2 hPa North 12.9 km/h 41.4 km/h 74 % 0 mm
13:07 -10.7 °C -13.3 °C 34774.2 hPa NNE 10.3 km/h 31.1 km/h 73 % 0 mm
13:12 -10.7 °C -13.2 °C 34760.7 hPa NNE 33.6 km/h 33.6 km/h 74 % 0 mm
13:17 -10.7 °C -13.2 °C 34760.7 hPa Calm   41.4 km/h 74 % 0 mm
13:22 -10.6 °C -13.4 °C 34760.7 hPa NNW 23.3 km/h 41.4 km/h 71 % 0 mm
13:27 -10.6 °C -13.2 °C 34760.7 hPa NE 23.3 km/h 41.4 km/h 73 % 0 mm
13:32 -10.4 °C -13.4 °C 34760.7 hPa NNE 20.8 km/h 36.2 km/h 70 % 0 mm
13:37 -10.4 °C -13.4 °C 34760.7 hPa NNW 7.7 km/h 38.8 km/h 70 % 0 mm
13:42 -10.3 °C -13.4 °C 34760.7 hPa NE 36.2 km/h 38.8 km/h 69 % 0 mm
13:47 -10.3 °C -13.3 °C 34750.5 hPa NE 20.8 km/h 44.1 km/h 70 % 0 mm
13:52 -10.2 °C -13.4 °C 34750.5 hPa NNW 10.3 km/h 44.1 km/h 68 % 0 mm
13:57 -10.2 °C -13.3 °C 34750.5 hPa NE 12.9 km/h 44.1 km/h 69 % 0 mm
14:02 -10.1 °C -13.4 °C 34750.5 hPa North 25.9 km/h 41.4 km/h 67 % 0 mm
14:07 -10.1 °C -13.5 °C 34760.7 hPa NNE 33.6 km/h 41.4 km/h 66 % 0 mm
14:12 -10 °C -13.3 °C 34750.5 hPa North 41.4 km/h 41.4 km/h 67 % 0 mm
14:17 -10 °C -13.1 °C 34760.7 hPa NNE 28.5 km/h 44.1 km/h 69 % 0 mm
14:22 -9.9 °C -13.6 °C 34760.7 hPa North 33.6 km/h 44.1 km/h 65 % 0 mm
14:27 -9.9 °C -13.6 °C 34750.5 hPa North 33.6 km/h 51.8 km/h 65 % 0 mm
14:32 -10 °C -13.6 °C 34750.5 hPa North 23.3 km/h 51.8 km/h 65 % 0 mm
14:37 -9.9 °C -13.4 °C 34750.5 hPa NE 15.6 km/h 51.8 km/h 66 % 0 mm
14:42 -9.9 °C -13.6 °C 34750.5 hPa WNW 20.8 km/h 51.8 km/h 64 % 0 mm
14:47 -9.9 °C -13.9 °C 34750.5 hPa NNW 31.1 km/h 54.4 km/h 62 % 0 mm
14:52 -9.8 °C -13.7 °C 34750.5 hPa North 20.8 km/h 54.4 km/h 63 % 0 mm
14:57 -9.9 °C -13.7 °C 34750.5 hPa NNW 25.9 km/h 54.4 km/h 63 % 0 mm
15:02 -9.9 °C -13.7 °C 34750.5 hPa NNW 15.6 km/h 51.8 km/h 63 % 0 mm
15:07 -9.9 °C -13.9 °C 34750.5 hPa North 28.5 km/h 51.8 km/h 62 % 0 mm
15:12 -9.7 °C -13.6 °C 34750.5 hPa NNW 31.1 km/h 51.8 km/h 63 % 0 mm
15:17 -9.8 °C -13.8 °C 34750.5 hPa NNE 25.9 km/h 51.8 km/h 62 % 0 mm
15:27 -9.8 °C -14.2 °C 34750.5 hPa WNW 12.9 km/h 51.8 km/h 59 % 0 mm
15:32 -9.8 °C -13.9 °C 34740.4 hPa North 36.2 km/h 54.4 km/h 61 % 0 mm
15:37 -9.8 °C -14.1 °C 34750.5 hPa NNW 18.2 km/h 59.5 km/h 60 % 0 mm
15:42 -9.8 °C -13.8 °C 34750.5 hPa NE 20.8 km/h 59.5 km/h 62 % 0 mm
15:47 -9.7 °C -14.1 °C 34750.5 hPa NE 23.3 km/h 51.8 km/h 59 % 0 mm
15:52 -9.7 °C -14.2 °C 34740.4 hPa NNE 41.4 km/h 49.2 km/h 58 % 0 mm
15:57 -9.7 °C -14.2 °C 34750.5 hPa North 18.2 km/h 54.4 km/h 58 % 0 mm
16:02 -9.7 °C -14.3 °C 34750.5 hPa North 28.5 km/h 54.4 km/h 58 % 0 mm
16:07 -9.7 °C -14.1 °C 34750.5 hPa NNE 23.3 km/h 54.4 km/h 59 % 0 mm
16:12 -9.8 °C -14.2 °C 34750.5 hPa WNW 20.8 km/h 57 km/h 59 % 0 mm
16:17 -9.7 °C -13.9 °C 34750.5 hPa NNE 25.9 km/h 57 km/h 60 % 0 mm
16:22 -9.6 °C -14 °C 34750.5 hPa NNW 36.2 km/h 57 km/h 59 % 0 mm
16:27 -9.6 °C -14.4 °C 34740.4 hPa NNW 28.5 km/h 54.4 km/h 56 % 0 mm
16:32 -9.6 °C -14.2 °C 34750.5 hPa NNW 25.9 km/h 54.4 km/h 57 % 0 mm
16:37 -9.6 °C -14.3 °C 34740.4 hPa ENE 31.1 km/h 54.4 km/h 57 % 0 mm
16:42 -9.6 °C -14.1 °C 34740.4 hPa North 10.3 km/h 51.8 km/h 58 % 0 mm
16:47 -9.5 °C -13.9 °C 34740.4 hPa ESE 20.8 km/h 51.8 km/h 59 % 0 mm
16:52 -9.6 °C -14 °C 34740.4 hPa NNW 10.3 km/h 49.2 km/h 59 % 0 mm
16:57 -9.6 °C -14.2 °C 34740.4 hPa NNW 18.2 km/h 46.7 km/h 58 % 0 mm
17:02 -9.5 °C -14.1 °C 34740.4 hPa NNE 23.3 km/h 46.7 km/h 58 % 0 mm
17:07 -9.6 °C -14 °C 34740.4 hPa North 33.6 km/h 46.7 km/h 59 % 0 mm
17:12 -9.6 °C -13.9 °C 34740.4 hPa NNW 23.3 km/h 44.1 km/h 60 % 0 mm
17:17 -9.6 °C -14 °C 34740.4 hPa NNW 15.6 km/h 44.1 km/h 59 % 0 mm
17:22 -9.6 °C -14.1 °C 34740.4 hPa NNE 18.2 km/h 44.1 km/h 58 % 0 mm
17:27 -9.6 °C -14 °C 34740.4 hPa North 23.3 km/h 41.4 km/h 59 % 0 mm
17:37 -9.6 °C -14 °C 34740.4 hPa NNW 12.9 km/h 46.7 km/h 59 % 0 mm
17:42 -9.7 °C -13.9 °C 34740.4 hPa NW 23.3 km/h 46.7 km/h 60 % 0 mm
17:47 -9.6 °C -14 °C 34740.4 hPa NE 31.1 km/h 46.7 km/h 59 % 0 mm
17:52 -9.6 °C -13.8 °C 34740.4 hPa NE 20.8 km/h 44.1 km/h 60 % 0 mm
17:57 -9.6 °C -13.9 °C 34740.4 hPa North 18.2 km/h 38.8 km/h 59 % 0 mm
18:02 -9.5 °C -13.9 °C 34740.4 hPa NNW 15.6 km/h 33.6 km/h 59 % 0 mm
18:07 -9.6 °C -14.1 °C 34740.4 hPa NNW 10.3 km/h 41.4 km/h 58 % 0 mm
18:17 -9.7 °C -14.3 °C 34740.4 hPa ENE 31.1 km/h 41.4 km/h 57 % 0 mm
18:22 -9.8 °C -14.3 °C 34740.4 hPa NNW 23.3 km/h 41.4 km/h 58 % 0 mm
18:27 -9.8 °C -14.3 °C 34740.4 hPa North 12.9 km/h 44.1 km/h 58 % 0 mm
18:32 -9.8 °C -14.2 °C 34740.4 hPa North 10.3 km/h 44.1 km/h 59 % 0 mm
18:42 -9.9 °C -14.4 °C 34740.4 hPa NNE 18.2 km/h 44.1 km/h 58 % 0 mm
18:47 -9.9 °C -14.4 °C 34740.4 hPa North 28.5 km/h 44.1 km/h 58 % 0 mm
18:52 -9.9 °C -14.6 °C 34740.4 hPa North 28.5 km/h 46.7 km/h 57 % 0 mm
18:57 -9.9 °C -14.3 °C 34740.4 hPa NE 15.6 km/h 46.7 km/h 59 % 0 mm
19:02 -9.9 °C -14.3 °C 34740.4 hPa NNE 23.3 km/h 46.7 km/h 59 % 0 mm
19:07 -9.9 °C -14.2 °C 34740.4 hPa NNW 15.6 km/h 44.1 km/h 60 % 0 mm
19:12 -10.1 °C -14.2 °C 34740.4 hPa ENE 12.9 km/h 38.8 km/h 61 % 0 mm
19:17 -10.1 °C -14.1 °C 34740.4 hPa North 10.3 km/h 36.2 km/h 62 % 0 mm
19:22 -10.2 °C -14.2 °C 34740.4 hPa NNE 23.3 km/h 36.2 km/h 62 % 0 mm
19:27 -10.2 °C -14.1 °C 34740.4 hPa NNE 12.9 km/h 33.6 km/h 63 % 0 mm
19:32 -10.2 °C -13.9 °C 34740.4 hPa NNW 12.9 km/h 33.6 km/h 64 % 0 mm
19:37 -10.3 °C -14.3 °C 34740.4 hPa North 12.9 km/h 38.8 km/h 62 % 0 mm
19:42 -10.3 °C -14.1 °C 34740.4 hPa NNE 7.7 km/h 38.8 km/h 64 % 0 mm
19:47 -10.4 °C -14.1 °C 34740.4 hPa NNE 10.3 km/h 38.8 km/h 64 % 0 mm
19:52 -10.4 °C -14.1 °C 34750.5 hPa NNW 23.3 km/h 31.1 km/h 64 % 0 mm
19:57 -10.4 °C -14 °C 34740.4 hPa NNE 10.3 km/h 31.1 km/h 65 % 0 mm
20:02 -10.5 °C -14.1 °C 34750.5 hPa NNW 12.9 km/h 31.1 km/h 65 % 0 mm
20:07 -10.6 °C -14 °C 34750.5 hPa NNW 7.7 km/h 25.9 km/h 66 % 0 mm
20:12 -10.6 °C -14.1 °C 34750.5 hPa NNE 10.3 km/h 23.3 km/h 66 % 0 mm
20:17 -10.7 °C -14.1 °C 34750.5 hPa North 10.3 km/h 23.3 km/h 66 % 0 mm
20:22 -10.7 °C -14.1 °C 34750.5 hPa NW 7.7 km/h 25.9 km/h 67 % 0 mm
20:27 -10.8 °C -14.1 °C 34750.5 hPa North 15.6 km/h 25.9 km/h 67 % 0 mm
20:32 -10.9 °C -14.1 °C 34750.5 hPa North 23.3 km/h 23.3 km/h 68 % 0 mm
20:37 -10.9 °C -14.1 °C 34750.5 hPa NNW 10.3 km/h 31.1 km/h 68 % 0 mm
20:42 -11 °C -14.1 °C 34750.5 hPa NNE 15.6 km/h 31.1 km/h 69 % 0 mm
20:47 -11.1 °C -14 °C 34750.5 hPa North 12.9 km/h 31.1 km/h 70 % 0 mm
20:52 -11.1 °C -14 °C 34750.5 hPa NNW 7.7 km/h 28.5 km/h 70 % 0 mm
20:57 -11.1 °C -13.9 °C 34750.5 hPa NNE 18.2 km/h 28.5 km/h 71 % 0 mm
21:02 -11.2 °C -14 °C 34760.7 hPa NNW 12.9 km/h 25.9 km/h 71 % 0 mm
21:07 -11.2 °C -13.9 °C 34760.7 hPa NNE 20.8 km/h 25.9 km/h 72 % 0 mm
21:12 -11.3 °C -14 °C 34760.7 hPa WNW 10.3 km/h 31.1 km/h 72 % 0 mm
21:17 -11.3 °C -13.9 °C 34760.7 hPa NNW 12.9 km/h 31.1 km/h 73 % 0 mm
21:22 -11.4 °C -13.9 °C 34760.7 hPa North 23.3 km/h 31.1 km/h 74 % 0 mm
21:27 -11.4 °C -13.8 °C 34760.7 hPa NNE 10.3 km/h 38.8 km/h 75 % 0 mm
21:32 -11.5 °C -13.8 °C 34760.7 hPa NE 28.5 km/h 38.8 km/h 76 % 0 mm
21:37 -11.6 °C -13.8 °C 34774.2 hPa North 15.6 km/h 38.8 km/h 76 % 0 mm
21:42 -11.6 °C -13.8 °C 34774.2 hPa North 5.1 km/h 33.6 km/h 76 % 0 mm
21:47 -11.7 °C -13.8 °C 34774.2 hPa WNW 10.3 km/h 33.6 km/h 77 % 0 mm
21:52 -11.7 °C -13.8 °C 34774.2 hPa North 15.6 km/h 25.9 km/h 78 % 0 mm
22:02 -11.8 °C -13.9 °C 34784.4 hPa NNW 18.2 km/h 25.9 km/h 78 % 0 mm
22:12 -11.9 °C -13.8 °C 34784.4 hPa NNW 18.2 km/h 23.3 km/h 79 % 0 mm
22:27 -12.1 °C -14.1 °C 34784.4 hPa NE 5.1 km/h 25.9 km/h 79 % 0 mm
22:32 -12.2 °C -14.1 °C 34784.4 hPa NNW 10.3 km/h 20.8 km/h 79 % 0 mm
22:37 -12.2 °C -14.1 °C 34784.4 hPa NE 12.9 km/h 23.3 km/h 79 % 0 mm
22:42 -12.3 °C -14.2 °C 34784.4 hPa NNW 5.1 km/h 23.3 km/h 79 % 0 mm
22:47 -12.3 °C -14.2 °C 34784.4 hPa NNE 7.7 km/h 23.3 km/h 80 % 0 mm
22:52 -12.4 °C -14.2 °C 34784.4 hPa NNW 5.1 km/h 18.2 km/h 80 % 0 mm
22:57 -12.4 °C -14.3 °C 34784.4 hPa NE 5.1 km/h 20.8 km/h 80 % 0 mm
23:02 -12.4 °C -14.3 °C 34784.4 hPa North 2.6 km/h 20.8 km/h 80 % 0 mm
23:07 -12.6 °C -14.3 °C 34784.4 hPa NNW 5.1 km/h 18.2 km/h 81 % 0 mm
23:12 -12.6 °C -14.3 °C 34784.4 hPa NE 5.1 km/h 15.6 km/h 81 % 0 mm
23:17 -12.6 °C -14.3 °C 34784.4 hPa NNE 12.9 km/h 12.9 km/h 81 % 0 mm
23:22 -12.7 °C -14.4 °C 34784.4 hPa NNE 7.7 km/h 23.3 km/h 81 % 0 mm
23:32 -12.6 °C -14.4 °C 34784.4 hPa NE 7.7 km/h 20.8 km/h 80 % 0 mm
23:37 -12.6 °C -14.6 °C 34784.4 hPa NNE 10.3 km/h 23.3 km/h 79 % 0 mm
23:42 -12.7 °C -14.5 °C 34784.4 hPa NNW 5.1 km/h 23.3 km/h 80 % 0 mm
23:47 -12.7 °C -14.6 °C 34784.4 hPa NE 7.7 km/h 23.3 km/h 79 % 0 mm
23:57 -12.8 °C -14.7 °C 34784.4 hPa NNW 10.3 km/h 20.8 km/h 79 % 0 mm
Meteo18
Compliments of Weather Underground - 4 mb

Script developed by  Jim McMurry - jmcmurry@mwt.net Adapted for the template by  Wim van der Kuil - Leuven-Template.eu

You find our weather info also at:

European Weather Network

Weather Underground

Equipment we use:

Weather-station
Davis Vue

Weather-program
Meteobridge

Weather-server
Raspberry PI 2 B+

Provider
1 and 1

Davis Vue

Meteobridge

Raspberry PI 2 B+

1 and 1